[[{"header":{"parameterUnit":"m.s-1","parameterCategory":2,"la1":30.2991,"la2":30.254,"lo1":-89.0895,"lo2":-89.0444,"dy":0.0017,"dx":0.0017,"nx":28,"ny":28,"refTime":"2024-03-07T09:00:00:Z","depth":"0","parameterNumber":2,"parameterNumberName":"U-component_of_CURRENTS"},"data":[0,0,0,0,0,0,0,0,0,0,0,0,0,0,0,0,0,0,0,0,0,0,0,0,0,0,0,0,0,0,0,0,0,0,0,0,0,0,0,0,0,0,0,0,0,0,0,0,0,0,0,0,0,0,0,0,0,0,0.3014,0.3014,0,0.302,0.3019,0.3019,0.3006,0.3006,0.3006,0.3005,0.2928,0.2926,0.2924,0,0,0,0,0,0,0,0,0,0,0,0,0,0.305,0.3049,0.3014,0.3014,0.3015,0.302,0.3019,0.3019,0.3006,0.3006,0.3006,0.3005,0.2928,0.2926,0.2924,0,0,0,0,0,0,0,0,0,0,0,0,0,0.304,0.3048,0.3014,0.3011,0.3011,0.302,0.3019,0.3019,0.3006,0.3006,0.3005,0.3005,0.2929,0.2926,0.2923,0.2909,0,0,0.2914,0.2913,0,0,0,0,0,0,0,0,0.304,0.3038,0.3011,0.3011,0.3011,0.3015,0.3004,0.2979,0.3006,0.3005,0.3005,0.3005,0.2951,0.2946,0.2945,0.2906,0.2902,0.2914,0.2912,0.2911,0.291,0,0,0,0,0,0,0,0.3041,0.3038,0.3013,0.3011,0.3012,0.303,0.3027,0.2999,0.2975,0.3005,0.3004,0.301,0.295,0.2948,0.2942,0.2901,0.2914,0.2912,0.291,0.2909,0.2892,0.2893,0,0,0,0,0,0,0.3043,0.3038,0.3013,0.3013,0.3029,0.3029,0.3026,0.3011,0.2977,0.2973,0.301,0.301,0.2953,0.2946,0.294,0.2962,0.2911,0.2908,0.2907,0.289,0.2892,0.2893,0,0,0,0,0,0,0.3044,0.304,0.3013,0.303,0.3028,0.3028,0.3012,0.3011,0.3015,0.2983,0.2977,0.3016,0.2952,0.2944,0.2931,0.2957,0.2907,0.2904,0.2889,0.2891,0.2893,0.298,0,0,0,0,0,0,0.3044,0.304,0.3035,0.3029,0.3027,0.3024,0.3013,0.3012,0.302,0.3019,0.2985,0.2978,0.2951,0.2936,0.2928,0.2952,0.2902,0.2887,0.289,0.2892,0.2976,0.2985,0.2993,0,0,0,0,0,0.3045,0.3033,0.3034,0.3032,0.3018,0.3025,0.3026,0.3024,0.3021,0.3025,0.3009,0.2979,0.2946,0.2934,0.2925,0.2949,0.2886,0.2889,0.2892,0.2972,0.2983,0.2993,0,0,0,0,0,0,0.3025,0.3031,0.3032,0.3016,0.3027,0.3024,0.3027,0.3031,0.3023,0.302,0.2988,0.2979,0.2985,0.2952,0.294,0.2953,0.2914,0.2915,0.2978,0.2988,0.2997,0.2995,0.29,0,0,0,0,0,0.3025,0.3032,0.3032,0.3024,0.3026,0.3031,0.3035,0.3039,0.3032,0.3029,0.3011,0.2993,0.299,0.2976,0.2964,0.2958,0.2954,0.2971,0.2979,0.2987,0.2981,0.3013,0.3024,0.2903,0.2903,0.2903,0,0,0.3015,0.3022,0.3023,0.3025,0.3028,0.3037,0.3031,0.3041,0.3056,0.302,0.3027,0.3023,0.2997,0.3006,0.3005,0.2979,0.3024,0.299,0.2997,0.2987,0.3017,0.3029,0.3039,0.2905,0.2905,0.2904,0,0,0.3007,0.3003,0.3009,0.3021,0.304,0.3048,0.3054,0.3061,0.3069,0.308,0.3071,0.3083,0.3057,0.3059,0.3053,0.3097,0.3076,0.3095,0.3126,0.3158,0.3169,0.3177,0.3209,0.322,0.309,0.3091,0.3091,0,0.2992,0.2994,0.3012,0.3022,0.3032,0.3054,0.3059,0.3077,0.3085,0.3098,0.3089,0.3102,0.3086,0.3107,0.313,0.3117,0.3129,0.3091,0.3171,0.3179,0.3187,0.3216,0.3227,0.3095,0.3095,0.3094,0.3094,0,0.2999,0.2996,0.2998,0.3023,0.3042,0.3049,0.3078,0.3103,0.312,0.3139,0.3172,0.3166,0.3169,0.3182,0.3166,0.3216,0.3209,0.3188,0.3147,0.3204,0.3232,0.3242,0.3102,0.31,0.3099,0.3098,0,0,0.2935,0.2993,0.2982,0.2999,0.304,0.305,0.3092,0.3129,0.3157,0.3187,0.3219,0.3241,0.3248,0.3242,0.3239,0.3268,0.3347,0.3252,0.3252,0.3287,0.3426,0.3321,0.3321,0.3346,0.3348,0.3349,0.3432,0,0.2918,0.2942,0.2977,0.2994,0.3003,0.3051,0.3085,0.3135,0.3175,0.3218,0.3249,0.3277,0.3268,0.3278,0.3311,0.3344,0.3373,0.3326,0.336,0.3361,0.3263,0.3328,0.3124,0.3171,0.3441,0.3443,0.3444,0,0.2882,0.2912,0.2929,0.2983,0.2989,0.3014,0.3077,0.3115,0.3197,0.3228,0.3278,0.3305,0.3367,0.3342,0.3426,0.34,0.3414,0.3435,0.3438,0.3308,0.3272,0.3151,0.3178,0.3092,0.3458,0.3457,0.3456,0,0.2814,0.2856,0.2875,0.2892,0.2968,0.2991,0.3034,0.3114,0.3152,0.3241,0.3281,0.3352,0.3388,0.3436,0.3482,0.3464,0.357,0.3544,0.3462,0.3456,0.3268,0.324,0.3209,0.3589,0.3589,0.3588,0.3588,0,0.2759,0.2762,0.2848,0.2855,0.2884,0.2953,0.2993,0.305,0.3136,0.3183,0.3275,0.332,0.3414,0.3483,0.3512,0.3523,0.3594,0.3477,0.347,0.3293,0.3268,0.317,0.3137,0.3592,0.3591,0.359,0.359,0,0.2665,0.2718,0.2743,0.2826,0.2849,0.2869,0.2959,0.2995,0.3089,0.3156,0.3188,0.332,0.3416,0.3499,0.3587,0.3544,0.3458,0.3552,0.3339,0.3303,0.3103,0.3081,0.2954,0.2869,0.3471,0.3469,0.3467,0,0.2621,0.2629,0.2705,0.2725,0.2759,0.2809,0.2843,0.2947,0.2989,0.3142,0.3163,0.3298,0.336,0.3465,0.343,0.3458,0.3395,0.3263,0.317,0.3067,0.304,0.2967,0.2901,0.2978,0.2972,0.2968,0.2964,0,0.2552,0.258,0.2613,0.2652,0.2685,0.272,0.2779,0.2811,0.2934,0.299,0.3088,0.3162,0.3252,0.3182,0.3204,0.3192,0.3067,0.3164,0.3113,0.269,0.2552,0.2474,0.2968,0.2923,0.2927,0.293,0.2932,0.2934,0.2501,0.2501,0.2552,0.2567,0.2606,0.2625,0.2606,0.268,0.2722,0.2762,0.2921,0.2927,0.2934,0.2928,0.2912,0.2716,0.2778,0.2592,0.2593,0.2546,0.2382,0.2782,0.2687,0.269,0.2692,0.2694,0.2696,0,0.2419,0.2438,0.2467,0.2478,0.2463,0.2515,0.2545,0.2498,0.2484,0.255,0.2586,0.2543,0.2446,0.2454,0.2291,0.2159,0.2082,0.21,0.1955,0.1935,0.233,0.2224,0.1955,0.1955,0.1955,0.1955,0.1956,0.1956,0.2385,0.237,0.2374,0.2323,0.2322,0.2247,0.2225,0.2185,0.2187,0.2118,0.2054,0.209,0.2142,0.2008,0.1837,0.1786,0.1677,0.154,0.1629,0.1905,0.1952,0.1996,0.189,0.1555,0.1555,0.1116,0.1113,0.111]},{"header":{"parameterUnit":"m.s-1","parameterCategory":2,"la1":30.2991,"la2":30.254,"lo1":-89.0895,"lo2":-89.0444,"dy":0.0017,"dx":0.0017,"nx":28,"ny":28,"refTime":"2024-03-07T09:00:00:Z","depth":"0","parameterNumber":3,"parameterNumberName":"V-component_of_CURRENTS"},"data":[0,0,0,0,0,0,0,0,0,0,0,0,0,0,0,0,0,0,0,0,0,0,0,0,0,0,0,0,0,0,0,0,0,0,0,0,0,0,0,0,0,0,0,0,0,0,0,0,0,0,0,0,0,0,0,0,0,0,-0.0423,-0.0424,0,-0.0474,-0.0475,-0.0475,-0.0495,-0.0495,-0.0495,-0.0495,-0.0509,-0.051,-0.051,0,0,0,0,0,0,0,0,0,0,0,0,0,-0.0371,-0.0371,-0.0423,-0.0424,-0.0425,-0.0474,-0.0475,-0.0475,-0.0495,-0.0495,-0.0495,-0.0495,-0.0509,-0.051,-0.051,0,0,0,0,0,0,0,0,0,0,0,0,0,-0.0403,-0.0371,-0.0423,-0.0442,-0.0444,-0.0474,-0.0475,-0.0475,-0.0495,-0.0495,-0.0495,-0.0495,-0.0509,-0.051,-0.051,-0.0515,0,0,-0.0512,-0.0512,0,0,0,0,0,0,0,0,-0.0402,-0.0405,-0.0438,-0.044,-0.0443,-0.0479,-0.0461,-0.0487,-0.0495,-0.0475,-0.0495,-0.0495,-0.0497,-0.0498,-0.0507,-0.0516,-0.0516,-0.0512,-0.0512,-0.0513,-0.0513,0,0,0,0,0,0,0,-0.0399,-0.0403,-0.0442,-0.0439,-0.0442,-0.0456,-0.0461,-0.0467,-0.0484,-0.0476,-0.0478,-0.0485,-0.0497,-0.0506,-0.0507,-0.0516,-0.0512,-0.0513,-0.0513,-0.0513,-0.0537,-0.0537,0,0,0,0,0,0,-0.0394,-0.0401,-0.0441,-0.0444,-0.0423,-0.0457,-0.0462,-0.0467,-0.0484,-0.0488,-0.0485,-0.0486,-0.0505,-0.0506,-0.0508,-0.0517,-0.0513,-0.0513,-0.0514,-0.0537,-0.0537,-0.0537,0,0,0,0,0,0,-0.0392,-0.0397,-0.0439,-0.0425,-0.0431,-0.0458,-0.0463,-0.0468,-0.0479,-0.0492,-0.0494,-0.0492,-0.0505,-0.0507,-0.0517,-0.0518,-0.0514,-0.0514,-0.0536,-0.0537,-0.0537,-0.0535,0,0,0,0,0,0,-0.0391,-0.0396,-0.0403,-0.0424,-0.0432,-0.0457,-0.0464,-0.0469,-0.0484,-0.0485,-0.0498,-0.05,-0.0505,-0.0516,-0.0517,-0.0519,-0.0515,-0.0536,-0.0536,-0.0537,-0.0534,-0.0535,-0.0535,0,0,0,0,0,-0.0389,-0.0397,-0.0402,-0.0408,-0.0438,-0.0457,-0.0462,-0.048,-0.0484,-0.049,-0.05,-0.0499,-0.052,-0.0516,-0.0518,-0.052,-0.0536,-0.0536,-0.0537,-0.0534,-0.0535,-0.0535,0,0,0,0,0,0,-0.0371,-0.0401,-0.0407,-0.0422,-0.0438,-0.0461,-0.0467,-0.0481,-0.0494,-0.0492,-0.0504,-0.0506,-0.0515,-0.0519,-0.0515,-0.0529,-0.0527,-0.0528,-0.0525,-0.0525,-0.0526,-0.0493,-0.0515,0,0,0,0,0,-0.0372,-0.0394,-0.041,-0.0426,-0.0425,-0.0445,-0.0457,-0.0469,-0.0483,-0.0489,-0.05,-0.0509,-0.0519,-0.0523,-0.0532,-0.0538,-0.052,-0.054,-0.0541,-0.0541,-0.0516,-0.0511,-0.0508,-0.0539,-0.0539,-0.0539,0,0,-0.0371,-0.0391,-0.0403,-0.0425,-0.0433,-0.0429,-0.0451,-0.0464,-0.0465,-0.0487,-0.049,-0.0511,-0.0522,-0.0532,-0.0536,-0.0534,-0.0522,-0.0542,-0.0542,-0.0516,-0.0511,-0.0508,-0.0505,-0.054,-0.0539,-0.0539,0,0,-0.0367,-0.039,-0.0392,-0.04,-0.0416,-0.0427,-0.0429,-0.0447,-0.0457,-0.047,-0.0485,-0.0505,-0.0519,-0.053,-0.0536,-0.0542,-0.0527,-0.055,-0.0523,-0.052,-0.0517,-0.0514,-0.0479,-0.0473,-0.0549,-0.0549,-0.0549,0,-0.0355,-0.0364,-0.0396,-0.0388,-0.0388,-0.042,-0.0403,-0.0421,-0.0446,-0.0446,-0.0467,-0.049,-0.0514,-0.0514,-0.0525,-0.0542,-0.0524,-0.0522,-0.0519,-0.0516,-0.0513,-0.0478,-0.0471,-0.0549,-0.0549,-0.0549,-0.0549,0,-0.0342,-0.0345,-0.0342,-0.0344,-0.0351,-0.0349,-0.0365,-0.0375,-0.0396,-0.0411,-0.0423,-0.0462,-0.047,-0.0494,-0.0513,-0.0507,-0.0495,-0.0522,-0.0514,-0.0509,-0.0473,-0.0466,-0.0549,-0.0549,-0.0549,-0.0549,0,0,-0.0297,-0.0327,-0.0317,-0.031,-0.0325,-0.0323,-0.0325,-0.0327,-0.0314,-0.0357,-0.0337,-0.0393,-0.0415,-0.0422,-0.0457,-0.0463,-0.0446,-0.0481,-0.0481,-0.0438,-0.0408,-0.0379,-0.0369,-0.0474,-0.0473,-0.0472,-0.0388,0,-0.026,-0.0243,-0.0268,-0.0243,-0.0228,-0.0255,-0.0247,-0.026,-0.028,-0.0272,-0.0318,-0.0317,-0.0387,-0.0389,-0.0412,-0.0431,-0.0428,-0.0464,-0.0424,-0.0422,-0.0391,-0.036,-0.0342,-0.0264,-0.0381,-0.038,-0.0379,0,-0.021,-0.0213,-0.0182,-0.0185,-0.0175,-0.0166,-0.015,-0.015,-0.0158,-0.0169,-0.0189,-0.0221,-0.0237,-0.0299,-0.0321,-0.0338,-0.0366,-0.0386,-0.0384,-0.0346,-0.038,-0.029,-0.0246,-0.0322,-0.0368,-0.0369,-0.037,0,-0.0144,-0.014,-0.0118,-0.0117,-0.0125,-0.011,-0.0108,-0.0112,-0.0087,-0.0092,-0.0065,-0.0113,-0.01,-0.016,-0.022,-0.0265,-0.0221,-0.0293,-0.0285,-0.0283,-0.025,-0.0246,-0.0266,-0.0294,-0.0294,-0.0294,-0.0295,0,-0.0086,-0.0063,-0.0086,-0.0069,-0.0026,-0.0051,0.0002,-0.0004,0.0017,0.0082,-0.0,0.0055,-0.0064,-0.0067,-0.0155,-0.0173,-0.017,-0.025,-0.0255,-0.0249,-0.0246,-0.0298,-0.0369,-0.0291,-0.0292,-0.0293,-0.0293,0,-0.0012,-0.0029,0.0001,-0.0,0.0007,0.0044,0.0081,0.0121,0.0129,0.0216,0.0229,0.021,0.0217,0.0112,0.0053,-0.0053,-0.0135,-0.0109,-0.0075,-0.0079,-0.0177,-0.0249,-0.0241,-0.0278,-0.0094,-0.0093,-0.0091,0,0.0025,0.0043,0.0065,0.0097,0.0101,0.0143,0.0184,0.0187,0.0246,0.0332,0.0399,0.0421,0.0476,0.0396,0.0222,0.0108,-0.0023,0.0021,-0.0082,-0.0147,-0.0232,-0.0284,-0.0321,-0.0034,-0.0032,-0.0031,-0.003,0,0.0092,0.0102,0.0129,0.0194,0.0239,0.0293,0.0354,0.0419,0.0464,0.0559,0.0701,0.0754,0.0677,0.0579,0.0391,0.0275,-0.0038,0.0042,-0.0042,-0.0184,-0.0224,-0.0273,-0.0108,-0.0019,-0.002,-0.0021,-0.0022,-0.0022,0.0157,0.0193,0.0234,0.0301,0.0358,0.0451,0.0519,0.0613,0.0749,0.091,0.094,0.1049,0.0852,0.0608,0.0447,0.0124,0.0078,-0.0008,-0.0084,-0.0124,-0.0182,0.0029,0.0111,0.011,0.011,0.011,0.011,0,0.024,0.0272,0.0335,0.042,0.0505,0.0513,0.0641,0.0731,0.0923,0.1075,0.1213,0.119,0.0961,0.0661,0.0231,0.0021,-0.0087,-0.0107,-0.0197,-0.0229,-0.0043,-0.0064,0.0004,0.0004,0.0004,0.0005,0.0005,0.0005,0.0288,0.0361,0.0386,0.0534,0.0599,0.0716,0.0797,0.0947,0.1073,0.1279,0.1352,0.1383,0.1151,0.0441,-0.0041,-0.0159,-0.0309,-0.0326,-0.0412,-0.0318,-0.0316,-0.0314,-0.0349,-0.0342,-0.0343,-0.0565,-0.0568,-0.0569]}],[{"header":{"parameterUnit":"m.s-1","parameterCategory":2,"la1":30.2991,"la2":30.254,"lo1":-89.0895,"lo2":-89.0444,"dy":0.0017,"dx":0.0017,"nx":28,"ny":28,"refTime":"2024-03-07T09:00:00:Z","depth":"2","parameterNumber":2,"parameterNumberName":"U-component_of_CURRENTS"},"data":[0,0,0,0,0,0,0,0,0,0,0,0,0,0,0,0,0,0,0,0,0,0,0,0,0,0,0,0,0,0,0,0,0,0,0,0,0,0,0,0,0,0,0,0,0,0,0,0,0,0,0,0,0,0,0,0,0,0,0.223,0.2229,0,0.2206,0.2206,0.2206,0.2198,0.2198,0.2198,0.2198,0.2199,0.2198,0.2198,0,0,0,0,0,0,0,0,0,0,0,0,0,0.2245,0.2245,0.223,0.2229,0.2229,0.2206,0.2206,0.2206,0.2198,0.2198,0.2198,0.2198,0.2199,0.2198,0.2198,0,0,0,0,0,0,0,0,0,0,0,0,0,0.2232,0.2245,0.223,0.2222,0.2221,0.2207,0.2206,0.2206,0.2198,0.2198,0.2198,0.2198,0.2199,0.2198,0.2198,0.2196,0,0,0.2198,0.2198,0,0,0,0,0,0,0,0,0.2233,0.2231,0.2224,0.2223,0.2222,0.2205,0.2212,0.2204,0.2198,0.2207,0.2198,0.2198,0.2203,0.2202,0.2198,0.2196,0.2196,0.2198,0.2198,0.2198,0.2198,0,0,0,0,0,0,0,0.2234,0.2232,0.2221,0.2223,0.2222,0.2212,0.2211,0.221,0.2205,0.2206,0.2205,0.2202,0.2202,0.2198,0.2198,0.2196,0.2198,0.2198,0.2198,0.2198,0.2281,0.2283,0,0,0,0,0,0,0.2237,0.2233,0.2221,0.222,0.2227,0.2212,0.221,0.221,0.2204,0.2203,0.2202,0.2202,0.2198,0.2198,0.2198,0.2244,0.2198,0.2198,0.2198,0.2278,0.2281,0.2284,0,0,0,0,0,0,0.2238,0.2237,0.2222,0.2226,0.2223,0.2212,0.2212,0.221,0.2221,0.2201,0.2201,0.2218,0.2198,0.2198,0.2213,0.2242,0.2198,0.2198,0.2276,0.2279,0.2282,0.2305,0,0,0,0,0,0,0.2238,0.2237,0.2238,0.2226,0.2223,0.2229,0.2211,0.2209,0.2218,0.2218,0.2214,0.2213,0.2198,0.2214,0.2213,0.2241,0.2198,0.2273,0.2277,0.2281,0.2301,0.2308,0.2315,0,0,0,0,0,0.2239,0.2234,0.2238,0.2237,0.2225,0.223,0.2228,0.222,0.2219,0.223,0.2228,0.2214,0.2241,0.2215,0.2214,0.2242,0.2271,0.2276,0.2281,0.2298,0.2307,0.2315,0,0,0,0,0,0,0.224,0.2232,0.2237,0.223,0.2241,0.2229,0.2233,0.2233,0.2239,0.224,0.2227,0.2226,0.2255,0.2253,0.2224,0.2285,0.2261,0.2266,0.2275,0.2283,0.2289,0.2306,0.2198,0,0,0,0,0,0.2242,0.2246,0.2241,0.2247,0.2249,0.2248,0.2249,0.2248,0.2249,0.2252,0.225,0.2259,0.2274,0.228,0.2289,0.2311,0.2317,0.2338,0.2345,0.235,0.2368,0.2388,0.2397,0.23,0.23,0.23,0,0,0.2237,0.2245,0.224,0.2249,0.2254,0.226,0.225,0.226,0.2268,0.2251,0.2267,0.2278,0.2287,0.2313,0.2328,0.2313,0.2385,0.2357,0.2361,0.2375,0.2394,0.2403,0.2411,0.2304,0.2303,0.2302,0,0,0.2242,0.2248,0.225,0.2262,0.2277,0.2278,0.2288,0.2289,0.2294,0.2313,0.2309,0.234,0.2354,0.2366,0.2374,0.2429,0.242,0.2443,0.2483,0.2502,0.251,0.2516,0.254,0.2549,0.2444,0.2444,0.2445,0,0.2238,0.2245,0.2254,0.2269,0.2275,0.2292,0.2297,0.2307,0.2315,0.2332,0.2327,0.2381,0.2382,0.2424,0.2447,0.2443,0.2454,0.2441,0.2508,0.2515,0.2521,0.2544,0.2553,0.2446,0.2446,0.2446,0.2446,0,0.2241,0.2253,0.2262,0.2286,0.2298,0.2309,0.2322,0.2345,0.2361,0.2375,0.2427,0.2436,0.2472,0.2485,0.248,0.2538,0.2533,0.2509,0.2477,0.2531,0.2553,0.2562,0.2449,0.2448,0.2447,0.2447,0,0,0.2209,0.225,0.2255,0.227,0.2304,0.2313,0.2346,0.2377,0.2405,0.2439,0.2479,0.2524,0.2545,0.2559,0.2564,0.259,0.2641,0.2576,0.2576,0.2584,0.2693,0.2613,0.2615,0.2623,0.2624,0.2626,0.269,0,0.2208,0.2233,0.2256,0.2283,0.2288,0.2325,0.2356,0.2395,0.2428,0.2474,0.252,0.2565,0.2566,0.2592,0.2619,0.2639,0.2666,0.2627,0.2656,0.2657,0.2565,0.2623,0.2392,0.2423,0.2699,0.27,0.2701,0,0.2194,0.2215,0.2234,0.2281,0.2288,0.2313,0.237,0.2399,0.2475,0.2506,0.2571,0.2607,0.2678,0.2657,0.2728,0.2703,0.271,0.272,0.2722,0.2647,0.2594,0.2416,0.2429,0.2716,0.2715,0.2714,0.2713,0,0.2155,0.2198,0.2216,0.2229,0.2283,0.231,0.2347,0.2414,0.2451,0.2536,0.258,0.2658,0.2705,0.2739,0.2776,0.2757,0.2838,0.2803,0.2742,0.2736,0.2547,0.2521,0.2848,0.2848,0.2848,0.2848,0.2848,0,0.2138,0.2146,0.2203,0.2209,0.2242,0.229,0.234,0.2386,0.2467,0.2515,0.2597,0.2644,0.2729,0.2784,0.28,0.2806,0.2857,0.277,0.2752,0.255,0.2525,0.2781,0.2772,0.285,0.285,0.2849,0.2849,0,0.209,0.2126,0.2142,0.2201,0.2222,0.2246,0.2333,0.2359,0.2452,0.2515,0.2553,0.266,0.2726,0.2794,0.2854,0.2827,0.2844,0.2827,0.2593,0.2545,0.2725,0.2718,0.2772,0.2769,0.2767,0.2766,0.2765,0,0.206,0.2066,0.2124,0.2137,0.2165,0.2217,0.224,0.2335,0.2367,0.2508,0.2523,0.2637,0.2668,0.2741,0.273,0.2748,0.2812,0.2534,0.2451,0.2743,0.272,0.2715,0.271,0.2216,0.221,0.2206,0.2202,0,0.2,0.2031,0.2051,0.2082,0.2104,0.2141,0.219,0.2215,0.2321,0.2368,0.2426,0.2474,0.2552,0.2459,0.2501,0.248,0.2513,0.2438,0.2805,0.2268,0.2223,0.22,0.2212,0.2161,0.2165,0.2168,0.217,0.2172,0.1954,0.1958,0.1996,0.2012,0.2037,0.205,0.2038,0.2085,0.2115,0.2155,0.2263,0.2245,0.2275,0.2212,0.215,0.2115,0.2294,0.218,0.2192,0.221,0.2131,0.2084,0.1983,0.1986,0.1988,0.1991,0.1993,0,0.1889,0.1906,0.1919,0.1923,0.1898,0.1967,0.1979,0.1936,0.1901,0.1964,0.1984,0.183,0.1769,0.1813,0.1687,0.1689,0.1667,0.162,0.1558,0.1601,0.1639,0.1529,0.1222,0.1219,0.1217,0.1215,0,0,0.1862,0.184,0.184,0.1779,0.1787,0.1727,0.1716,0.1666,0.1673,0.1613,0.1583,0.1709,0.1759,0.1469,0.1428,0.1297,0.1442,0.1248,0.1868,0.1839,0.1874,0.1966,0.1845,0,0,0,0,0]},{"header":{"parameterUnit":"m.s-1","parameterCategory":2,"la1":30.2991,"la2":30.254,"lo1":-89.0895,"lo2":-89.0444,"dy":0.0017,"dx":0.0017,"nx":28,"ny":28,"refTime":"2024-03-07T09:00:00:Z","depth":"2","parameterNumber":3,"parameterNumberName":"V-component_of_CURRENTS"},"data":[0,0,0,0,0,0,0,0,0,0,0,0,0,0,0,0,0,0,0,0,0,0,0,0,0,0,0,0,0,0,0,0,0,0,0,0,0,0,0,0,0,0,0,0,0,0,0,0,0,0,0,0,0,0,0,0,0,0,0.0168,0.0168,0,0.0161,0.016,0.016,0.0149,0.0149,0.0149,0.0148,0.0115,0.0114,0.0114,0,0,0,0,0,0,0,0,0,0,0,0,0,0.0174,0.0174,0.0169,0.0168,0.0168,0.0161,0.016,0.016,0.0149,0.0149,0.0149,0.0148,0.0115,0.0114,0.0114,0,0,0,0,0,0,0,0,0,0,0,0,0,0.0169,0.0174,0.0169,0.0162,0.0161,0.0161,0.016,0.016,0.0149,0.0149,0.0148,0.0148,0.0116,0.0115,0.0113,0.0112,0,0,0.011,0.011,0,0,0,0,0,0,0,0,0.017,0.0169,0.0163,0.0162,0.0162,0.0156,0.015,0.0143,0.0149,0.0153,0.0148,0.0148,0.0127,0.0125,0.0124,0.0111,0.0109,0.011,0.0109,0.0109,0.0109,0,0,0,0,0,0,0,0.017,0.017,0.0165,0.0163,0.0162,0.0159,0.0158,0.0149,0.0141,0.0153,0.0152,0.0152,0.0126,0.0125,0.0123,0.0109,0.011,0.0109,0.0109,0.0108,0.008,0.0079,0,0,0,0,0,0,0.0172,0.017,0.0165,0.0165,0.0165,0.016,0.0158,0.0158,0.0142,0.0139,0.0152,0.0151,0.0127,0.0124,0.0122,0.0133,0.0109,0.0108,0.0107,0.008,0.0079,0.0079,0,0,0,0,0,0,0.0172,0.0171,0.0166,0.0167,0.0166,0.016,0.0159,0.0158,0.0157,0.0141,0.0138,0.0153,0.0127,0.0123,0.0121,0.0131,0.0108,0.0107,0.008,0.008,0.0079,0.0146,0,0,0,0,0,0,0.0172,0.0171,0.0171,0.0167,0.0166,0.0172,0.0159,0.0158,0.0157,0.0156,0.0141,0.0138,0.0126,0.0123,0.012,0.0129,0.0106,0.008,0.008,0.0079,0.0144,0.0148,0.0151,0,0,0,0,0,0.0172,0.0178,0.0171,0.0171,0.0166,0.0172,0.0172,0.0165,0.0158,0.0163,0.0154,0.0138,0.0119,0.0123,0.0119,0.0128,0.008,0.008,0.0079,0.0142,0.0147,0.0151,0,0,0,0,0,0,0.0182,0.0178,0.017,0.0174,0.0174,0.017,0.0174,0.0168,0.0165,0.0162,0.0145,0.0142,0.0142,0.0121,0.0126,0.0115,0.0093,0.0092,0.0142,0.0146,0.015,0.0159,0.0105,0,0,0,0,0,0.0183,0.0185,0.0181,0.0183,0.0185,0.0179,0.0179,0.0175,0.0172,0.017,0.0162,0.0146,0.0138,0.0133,0.0121,0.012,0.0099,0.0118,0.0122,0.0125,0.0128,0.0113,0.0116,0.0079,0.0079,0.0079,0,0,0.0193,0.0184,0.019,0.0185,0.0184,0.0198,0.0179,0.0184,0.0197,0.0166,0.0183,0.0164,0.014,0.0143,0.0139,0.0127,0.0123,0.0125,0.0129,0.0129,0.0113,0.0117,0.012,0.0078,0.0078,0.0078,0,0,0.0211,0.0201,0.0212,0.0214,0.021,0.021,0.0213,0.0213,0.0215,0.0223,0.0205,0.0193,0.0181,0.017,0.0161,0.0175,0.0146,0.0164,0.0193,0.0179,0.0182,0.0185,0.0163,0.0163,0.0165,0.0165,0.0165,0,0.0216,0.0231,0.0217,0.0227,0.0236,0.0219,0.0241,0.0243,0.0243,0.0249,0.0235,0.0216,0.0195,0.0198,0.02,0.0186,0.017,0.0183,0.0186,0.0189,0.019,0.0166,0.0166,0.0168,0.0168,0.0167,0.0167,0,0.0253,0.0259,0.0267,0.0275,0.0282,0.0297,0.03,0.031,0.0305,0.0302,0.0303,0.0275,0.0261,0.0249,0.023,0.0231,0.0212,0.0198,0.0181,0.0199,0.0171,0.017,0.0172,0.0171,0.017,0.017,0,0,0.0272,0.0289,0.0291,0.0307,0.031,0.0324,0.0348,0.0366,0.0389,0.037,0.0392,0.036,0.0334,0.032,0.029,0.0272,0.0266,0.0242,0.024,0.0231,0.0231,0.0212,0.0208,0.0258,0.0258,0.0258,0.0207,0,0.0302,0.0338,0.0336,0.0377,0.0401,0.0396,0.0426,0.0436,0.0438,0.0455,0.0414,0.0416,0.0365,0.0359,0.0333,0.0291,0.0264,0.0281,0.0204,0.0202,0.0193,0.0207,0.0219,0.0175,0.0205,0.0205,0.0205,0,0.0338,0.0359,0.0405,0.0439,0.045,0.0472,0.0516,0.0537,0.0546,0.0548,0.0529,0.0495,0.0464,0.0418,0.0345,0.0359,0.0296,0.0254,0.0251,0.021,0.018,0.0161,0.017,0.0201,0.0202,0.0202,0.0202,0,0.0371,0.0404,0.0446,0.0458,0.0495,0.052,0.0543,0.0565,0.0599,0.0603,0.0623,0.0569,0.0553,0.0474,0.0371,0.0362,0.029,0.0266,0.0185,0.0183,0.0165,0.0161,0.0207,0.0207,0.0207,0.0208,0.0208,0,0.0405,0.0438,0.0467,0.0495,0.0556,0.0561,0.0623,0.0644,0.0674,0.0722,0.0669,0.0689,0.0567,0.0506,0.0402,0.0293,0.0309,0.0192,0.0172,0.0187,0.0186,0.0184,0.0182,0.0206,0.0206,0.0206,0.0207,0,0.0435,0.0453,0.0504,0.0552,0.0574,0.0617,0.0682,0.073,0.0751,0.0813,0.0817,0.078,0.0705,0.0574,0.0445,0.0342,0.0233,0.0184,0.0204,0.0187,0.0125,0.0127,0.0094,0.0093,0.0092,0.0092,0.0091,0,0.0458,0.0487,0.0549,0.0588,0.0613,0.0675,0.073,0.077,0.0823,0.0875,0.0911,0.0854,0.0827,0.0629,0.0441,0.0258,0.0227,0.0136,0.0115,0.0132,0.0115,0.0118,0.0121,0.0114,0.0113,0.0113,0.0113,0,0.0503,0.0518,0.0561,0.0639,0.0702,0.0773,0.0848,0.0902,0.0957,0.1006,0.1051,0.103,0.0855,0.0673,0.042,0.0291,0.0167,0.0123,0.0145,0.0142,0.0146,0.0131,0.0134,0.011,0.011,0.0111,0.0111,0.0111,0.0536,0.0568,0.062,0.0694,0.0766,0.0858,0.092,0.0996,0.1081,0.1144,0.1135,0.1099,0.0913,0.0583,0.038,0.0153,0.016,0.0065,0.0068,0.007,0.0084,0.0086,0.0041,0.0041,0.004,0.004,0.004,0,0.0571,0.0607,0.0675,0.0761,0.0834,0.0872,0.099,0.1044,0.1135,0.1183,0.1201,0.1012,0.0825,0.0603,0.0278,0.009,0.0076,0.0014,0.0044,0.0048,0.0051,0.0065,0.0015,0.0015,0.0014,0.0014,0,0,0.0591,0.065,0.0678,0.0795,0.0858,0.0959,0.1023,0.1102,0.1151,0.118,0.1151,0.1119,0.0874,0.0633,0.0387,0.0201,0.0161,0.0154,0.0193,0.0261,0.0266,0.0098,0.0125,0,0,0,0,0]}],[{"header":{"parameterUnit":"m.s-1","parameterCategory":2,"la1":30.2991,"la2":30.254,"lo1":-89.0895,"lo2":-89.0444,"dy":0.0017,"dx":0.0017,"nx":28,"ny":28,"refTime":"2024-03-07T09:00:00:Z","depth":"4","parameterNumber":2,"parameterNumberName":"U-component_of_CURRENTS"},"data":[0,0,0,0,0,0,0,0,0,0,0,0,0,0,0,0,0,0,0,0,0,0,0,0,0,0,0,0,0,0,0,0,0,0,0,0,0,0,0,0,0,0,0,0,0,0,0,0,0,0,0,0,0,0,0,0,0,0,0.1242,0.1242,0,0.1272,0.1272,0.1273,0.1308,0.1309,0.1309,0.131,0.1368,0.1368,0.1369,0,0,0,0,0,0,0,0,0,0,0,0,0,0.1221,0.1221,0.1242,0.1242,0.1243,0.1272,0.1272,0.1273,0.1308,0.1309,0.131,0.131,0.1367,0.1368,0.1369,0,0,0,0,0,0,0,0,0,0,0,0,0,0.1237,0.1221,0.1242,0.1265,0.1268,0.1272,0.1272,0.1273,0.1308,0.1309,0.131,0.1311,0.1367,0.1368,0.137,0.1358,0,0,0.1374,0.1374,0,0,0,0,0,0,0,0,0.1236,0.1238,0.1261,0.1263,0.1266,0.1289,0.1286,0.1303,0.1308,0.1291,0.131,0.1311,0.1344,0.1347,0.1348,0.1361,0.1363,0.1374,0.1375,0.1375,0.1376,0,0,0,0,0,0,0,0.1235,0.1237,0.1253,0.1262,0.1265,0.1276,0.1279,0.1289,0.1311,0.1293,0.1296,0.1301,0.1345,0.1347,0.135,0.1364,0.1374,0.1375,0.1376,0.1376,0.1465,0.1466,0,0,0,0,0,0,0.1232,0.1235,0.1252,0.1254,0.1255,0.1276,0.1279,0.1279,0.131,0.1316,0.13,0.1302,0.1344,0.1348,0.1352,0.1422,0.1375,0.1377,0.1377,0.1463,0.1465,0.1467,0,0,0,0,0,0,0.1232,0.1233,0.125,0.1247,0.125,0.1275,0.1275,0.1279,0.1311,0.1316,0.1322,0.133,0.1345,0.135,0.139,0.1421,0.1377,0.1378,0.1462,0.1464,0.1466,0.1508,0,0,0,0,0,0,0.1231,0.1233,0.1246,0.1246,0.125,0.1268,0.1274,0.1279,0.1311,0.1315,0.1343,0.1348,0.1346,0.1388,0.1392,0.1422,0.1379,0.146,0.1463,0.1465,0.1505,0.1512,0.1518,0,0,0,0,0,0.123,0.1237,0.1246,0.1249,0.1262,0.1269,0.1272,0.1292,0.1312,0.1325,0.1352,0.1349,0.1409,0.139,0.1394,0.1426,0.1458,0.1462,0.1465,0.1502,0.151,0.1517,0,0,0,0,0,0,0.1234,0.1242,0.1251,0.1261,0.1274,0.1276,0.1297,0.1309,0.1339,0.1356,0.1363,0.137,0.1417,0.1416,0.1396,0.1461,0.1435,0.1439,0.1462,0.147,0.1476,0.1469,0.1381,0,0,0,0,0,0.1241,0.1249,0.1257,0.1267,0.128,0.1295,0.1308,0.132,0.1339,0.1355,0.1374,0.1401,0.1428,0.1446,0.1464,0.1495,0.15,0.1521,0.1527,0.1532,0.153,0.1571,0.158,0.1478,0.1478,0.1478,0,0,0.1243,0.1251,0.1256,0.127,0.1286,0.1302,0.1306,0.1332,0.135,0.1356,0.1401,0.1424,0.1443,0.1481,0.1503,0.1488,0.1566,0.1537,0.1541,0.1536,0.1575,0.1585,0.1594,0.1481,0.148,0.148,0,0,0.1248,0.1266,0.1277,0.1292,0.132,0.1326,0.134,0.1361,0.1383,0.142,0.1436,0.1477,0.1513,0.1531,0.1545,0.1596,0.1598,0.1612,0.1637,0.1677,0.1686,0.1693,0.1716,0.1725,0.1614,0.1614,0.1615,0,0.1262,0.1266,0.1282,0.1302,0.1318,0.1341,0.1359,0.138,0.141,0.1435,0.1444,0.152,0.1534,0.1584,0.1604,0.161,0.163,0.1605,0.1685,0.1692,0.1699,0.1721,0.173,0.1617,0.1617,0.1616,0.1616,0,0.1263,0.1285,0.1297,0.1326,0.1346,0.1365,0.1393,0.1425,0.1459,0.148,0.1546,0.1571,0.1617,0.1632,0.1634,0.1696,0.1694,0.1688,0.1662,0.1712,0.1732,0.1741,0.162,0.162,0.1619,0.1618,0,0,0.1253,0.129,0.1302,0.1319,0.1362,0.1374,0.142,0.1458,0.1498,0.1543,0.1593,0.1646,0.1673,0.169,0.1707,0.1737,0.1802,0.1737,0.1738,0.1754,0.189,0.176,0.1757,0.1819,0.1821,0.1822,0.1885,0,0.1257,0.1287,0.1307,0.1344,0.1361,0.1402,0.144,0.1485,0.153,0.1585,0.1632,0.1689,0.1692,0.1728,0.1762,0.1794,0.1829,0.1785,0.1845,0.1846,0.1719,0.1764,0.1828,0.1892,0.1894,0.1896,0.1897,0,0.125,0.1272,0.1304,0.1352,0.1368,0.1399,0.1468,0.1505,0.1586,0.1627,0.1695,0.1733,0.1799,0.179,0.1874,0.1852,0.1878,0.1893,0.1896,0.1762,0.1732,0.1832,0.1913,0.1912,0.191,0.1909,0.1908,0,0.1219,0.127,0.1293,0.131,0.1369,0.1407,0.145,0.1528,0.1571,0.1665,0.1713,0.1788,0.1846,0.1889,0.1932,0.1917,0.201,0.199,0.1897,0.1888,0.1967,0.1959,0.2049,0.2049,0.2049,0.2049,0.2049,0,0.1195,0.122,0.1288,0.1301,0.1345,0.1401,0.1463,0.1519,0.1608,0.1661,0.1742,0.1789,0.1878,0.1938,0.1957,0.1953,0.2039,0.1902,0.1896,0.1984,0.1977,0.1974,0.1964,0.2051,0.2051,0.205,0.205,0,0.1148,0.119,0.1224,0.13,0.1329,0.1368,0.1467,0.1506,0.1605,0.1678,0.1715,0.182,0.1889,0.1955,0.2029,0.1977,0.1987,0.1968,0.2061,0.206,0.183,0.1823,0.1853,0.1849,0.1845,0.1842,0.184,0,0.1119,0.1133,0.1218,0.1243,0.1282,0.135,0.1392,0.1495,0.1538,0.1677,0.17,0.181,0.1866,0.1861,0.1937,0.1961,0.1944,0.193,0.1865,0.1819,0.1812,0.1809,0.1806,0.1835,0.1834,0.1833,0.1832,0,0.1067,0.1112,0.1144,0.1197,0.1246,0.1283,0.1358,0.1378,0.1494,0.1602,0.1638,0.1668,0.1741,0.1779,0.182,0.1832,0.192,0.1894,0.19,0.1839,0.1798,0.1793,0.1794,0.182,0.1822,0.1823,0.1823,0,0.1038,0.1048,0.1101,0.1135,0.1191,0.1198,0.1243,0.1288,0.1341,0.1493,0.1502,0.1614,0.1721,0.1714,0.1749,0.1751,0.1718,0.1648,0.1666,0.168,0.1593,0.1514,0.1446,0,0,0,0,0,0.1001,0.1001,0.1031,0.1058,0.1107,0.1136,0.121,0.1256,0.1373,0.1357,0.1424,0.1478,0.1516,0.1573,0.1541,0.1679,0.173,0.1633,0.166,0.1754,0.1768,0.1681,0,0,0,0,0,0,0.0975,0.1002,0.1004,0.0987,0.099,0.1026,0.1065,0.1137,0.1133,0.1259,0.1288,0.1385,0.1449,0.1526,0.1514,0.1533,0.1516,0.1709,0.1705,0.1746,0.1759,0.177,0.1685,0,0,0,0,0]},{"header":{"parameterUnit":"m.s-1","parameterCategory":2,"la1":30.2991,"la2":30.254,"lo1":-89.0895,"lo2":-89.0444,"dy":0.0017,"dx":0.0017,"nx":28,"ny":28,"refTime":"2024-03-07T09:00:00:Z","depth":"4","parameterNumber":3,"parameterNumberName":"V-component_of_CURRENTS"},"data":[0,0,0,0,0,0,0,0,0,0,0,0,0,0,0,0,0,0,0,0,0,0,0,0,0,0,0,0,0,0,0,0,0,0,0,0,0,0,0,0,0,0,0,0,0,0,0,0,0,0,0,0,0,0,0,0,0,0,0.0228,0.0228,0,0.0227,0.0227,0.0227,0.0228,0.0228,0.0228,0.0228,0.0222,0.0221,0.0221,0,0,0,0,0,0,0,0,0,0,0,0,0,0.0225,0.0226,0.0228,0.0228,0.0228,0.0226,0.0227,0.0227,0.0228,0.0228,0.0228,0.0228,0.0222,0.0221,0.0221,0,0,0,0,0,0,0,0,0,0,0,0,0,0.0226,0.0226,0.0228,0.0227,0.0227,0.0226,0.0227,0.0227,0.0228,0.0228,0.0228,0.0227,0.0222,0.0221,0.0221,0.0222,0,0,0.0221,0.0221,0,0,0,0,0,0,0,0,0.0226,0.0227,0.0228,0.0227,0.0227,0.0226,0.0223,0.0224,0.0228,0.0229,0.0228,0.0227,0.0222,0.0222,0.0223,0.0222,0.0221,0.0221,0.0221,0.0221,0.0221,0,0,0,0,0,0,0,0.0226,0.0227,0.0229,0.0227,0.0227,0.0225,0.0225,0.0224,0.0227,0.0229,0.0228,0.0226,0.0222,0.0224,0.0223,0.0221,0.0221,0.0221,0.0221,0.022,0.0227,0.0227,0,0,0,0,0,0,0.0225,0.0227,0.0229,0.0228,0.0225,0.0225,0.0225,0.0228,0.0227,0.0226,0.0227,0.0227,0.0224,0.0223,0.0223,0.0242,0.0221,0.022,0.022,0.0227,0.0227,0.0227,0,0,0,0,0,0,0.0225,0.0225,0.0229,0.0226,0.0226,0.0225,0.0228,0.0228,0.0233,0.0225,0.0225,0.0232,0.0224,0.0223,0.023,0.0241,0.022,0.022,0.0226,0.0227,0.0227,0.0269,0,0,0,0,0,0,0.0225,0.0225,0.0229,0.0226,0.0227,0.0236,0.0228,0.0228,0.0231,0.0231,0.023,0.0229,0.0224,0.023,0.023,0.0241,0.022,0.0226,0.0227,0.0227,0.0267,0.0271,0.0274,0,0,0,0,0,0.0225,0.0232,0.0229,0.0229,0.0231,0.0236,0.0237,0.0235,0.0232,0.0239,0.0238,0.0229,0.0233,0.0231,0.023,0.0241,0.0226,0.0227,0.0227,0.0266,0.027,0.0274,0,0,0,0,0,0,0.0232,0.0233,0.0229,0.0236,0.0238,0.0236,0.0242,0.0239,0.0244,0.0244,0.0236,0.0236,0.0246,0.0236,0.0233,0.0243,0.0226,0.0227,0.0256,0.026,0.0263,0.027,0.022,0,0,0,0,0,0.0235,0.0243,0.0239,0.0247,0.0248,0.0245,0.0247,0.0246,0.0248,0.025,0.025,0.0247,0.0247,0.0248,0.0247,0.0254,0.0232,0.0258,0.0261,0.0264,0.0269,0.0247,0.0249,0.0229,0.0229,0.0229,0,0,0.0242,0.0241,0.0247,0.0249,0.025,0.0261,0.0247,0.0254,0.0267,0.0248,0.0269,0.026,0.0251,0.0262,0.0264,0.0255,0.0256,0.0265,0.0268,0.027,0.0248,0.025,0.0251,0.023,0.023,0.023,0,0,0.0259,0.0258,0.027,0.0273,0.0274,0.0275,0.0278,0.0281,0.0286,0.0299,0.0289,0.0289,0.0292,0.0288,0.0285,0.0304,0.0275,0.0301,0.0324,0.0303,0.0305,0.0306,0.0272,0.027,0.0301,0.0302,0.0302,0,0.0263,0.028,0.0275,0.0285,0.0294,0.0284,0.0301,0.0306,0.0312,0.032,0.0312,0.0313,0.0305,0.0314,0.032,0.0313,0.029,0.0312,0.0308,0.0308,0.0309,0.0274,0.0271,0.0304,0.0303,0.0303,0.0303,0,0.0291,0.0303,0.0311,0.0324,0.0332,0.0346,0.0349,0.0361,0.0364,0.0365,0.0375,0.0361,0.0361,0.0356,0.0346,0.0346,0.0324,0.0316,0.0299,0.0313,0.0276,0.0272,0.0307,0.0306,0.0305,0.0305,0,0,0.0302,0.0327,0.033,0.0346,0.0355,0.0368,0.039,0.0408,0.0426,0.0422,0.044,0.0433,0.0417,0.0412,0.0394,0.0374,0.0354,0.0348,0.0346,0.0318,0.0296,0.0274,0.0267,0.0343,0.0343,0.0343,0.0266,0,0.0325,0.0358,0.0365,0.0402,0.0421,0.0425,0.045,0.0463,0.0468,0.0482,0.0461,0.0468,0.0441,0.0439,0.0417,0.0374,0.0347,0.0375,0.0284,0.0281,0.0263,0.0263,0.0342,0.0263,0.0262,0.0261,0.0261,0,0.0349,0.0371,0.0412,0.0449,0.0458,0.0481,0.0518,0.0539,0.0548,0.0551,0.0544,0.0522,0.05,0.0472,0.04,0.0417,0.0361,0.032,0.0316,0.028,0.0253,0.0247,0.0253,0.0254,0.0254,0.0255,0.0255,0,0.0365,0.0403,0.0441,0.0453,0.0492,0.0518,0.0542,0.0562,0.0588,0.0592,0.0602,0.0565,0.0552,0.0482,0.0396,0.0397,0.0305,0.0295,0.0218,0.0215,0.0239,0.0239,0.0238,0.0238,0.0238,0.0239,0.0239,0,0.0385,0.0416,0.0455,0.0477,0.0532,0.0546,0.06,0.0617,0.064,0.067,0.0639,0.064,0.0554,0.0491,0.0406,0.0298,0.0309,0.022,0.0196,0.0257,0.0259,0.0235,0.0236,0.0236,0.0236,0.0237,0.0237,0,0.0395,0.042,0.0467,0.0518,0.0541,0.058,0.0644,0.0677,0.0696,0.073,0.0733,0.0694,0.0613,0.0512,0.0392,0.0315,0.0213,0.0169,0.0233,0.0215,0.013,0.0134,0.0077,0.0075,0.0074,0.0073,0.0072,0,0.0402,0.0428,0.0497,0.0531,0.0559,0.062,0.0664,0.0704,0.0736,0.0759,0.0772,0.0711,0.0669,0.0482,0.0374,0.0203,0.0178,0.0116,0.013,0.0132,0.0115,0.0121,0.0126,0.007,0.007,0.007,0.007,0,0.0416,0.0442,0.0481,0.0551,0.0606,0.067,0.073,0.0757,0.0799,0.0818,0.0795,0.0708,0.0613,0.0474,0.0341,0.022,0.0154,0.0103,0.0105,0.0118,0.0124,0.0109,0.0116,0.0066,0.0066,0.0066,0.0067,0,0.0424,0.045,0.0503,0.0564,0.0633,0.0694,0.0731,0.0766,0.08,0.0819,0.0806,0.0715,0.0664,0.0482,0.0361,0.0239,0.0208,0.0161,0.0159,0.0162,0.021,0.0233,0.0187,0,0,0,0,0,0.0428,0.0456,0.0511,0.0576,0.0644,0.0687,0.0763,0.0794,0.0833,0.0817,0.0813,0.0724,0.0552,0.0482,0.0355,0.0333,0.0183,0.0179,0.0127,0.0043,0.0048,0.0089,0,0,0,0,0,0,0.0428,0.0476,0.0503,0.0574,0.0618,0.0696,0.0746,0.0778,0.0769,0.0788,0.0699,0.0673,0.0507,0.0617,0.0344,0.0311,0.0256,0.0107,0.0104,0.0041,0.0045,0.0049,0.0093,0,0,0,0,0]}]]